Location: Bishop�s Knoyle
(51.0728°N, 2.1714°W)
Time: 13:57:05
(UTC+00:00)

NOSS 3-4 (C) - Pass Details

Date: 25 January 2021
Orbit: 878 x 1335 km, 63.4° (Epoch: 16 February)

Event Time Altitude Azimuth Distance (km) Brightness Sun altitude
Rises 17:51:32 0° 273° (W) 3,540 7.9 -10.0°
Reaches altitude 10° 17:54:17 10° 284° (WNW) 2,642 6.8 -10.4°
Maximum altitude 17:59:43 31° 346° (NNW) 1,654 4.7 -11.2°
Enters shadow 18:05:24 11° 46° (NE) 2,816 5.4 -12.1°
